Location: Newark
(31.5350°N, 35.0986°E)
Time: 14:51:45
(UTC+00:00)

Vanguard 1 - Pass Details

Date: 30 September 2019
Orbit: 653 x 3830 km, 34.2° (Epoch: 20 October)

Event Time Altitude Azimuth Distance (km) Brightness Sun altitude
Rises 20:44:46 0° 241° (WSW) 6,143 14.1 -59.5°
Enters shadow 20:46:19 - 240° (WSW) 5,824 13.9 -59.6°
Reaches altitude 10° 20:48:10 10° 240° (WSW) 5,465 - -59.8°
Maximum altitude 21:06:44 80° 156° (SSE) 3,687 - -60.9°
Exits shadow 21:19:56 37° 76° (ENE) 5,006 13.4 -61.3°
Drops below altitude 10° 21:30:31 10° 74° (ENE) 6,710 14.3 -61.4°
Sets 21:35:16 0° 74° (ENE) 7,525 14.7 -61.4°
